Regional Weather Roundup
Issued by NWS

Home | Current Version | Previous Version | Text Only | Print | Product List | Glossary Off
Versions: 1 2 3 4 5 6 7 8 9 10 11 12 13 14 15 16 17 18 19 20 21 22 23 24 25 26 27 28 29 30 31 32 33 34 35 36 37 38 39 40 41 42 43 44 45 46 47 48 49 50

000
ASUS45 KBOU 212307
RWRCO

WEATHER ROUNDUP FOR COLORADO
NATIONAL WEATHER SERVICE DENVER/BOULDER CO
500 PM MDT THU AUG 21 2014

NOTE: "FAIR" INDICATES FEW OR NO CLOUDS BELOW 12000 FEET WITH NO
SIGNIFICANT WEATHER AND/OR OBSTRUCTIONS TO VISIBILITY.

COZ001>005-013-030-031-220000-
...NORTHWEST COLORADO...

CITY           SKY/WX    TMP DP  RH WIND       PRES   REMARKS
CRAIG          CLOUDY    74  46  36 W12       30.18S
HAYDEN         CLOUDY    72  39  30 W15       30.20F
MEEKER         CLOUDY    73  43  33 W7        30.19F
MOUNT WERNER   NOT AVBL
STEAMBOAT SPGS CLOUDY    69  44  41 W7        30.23S
WALDEN         CLOUDY    64  41  42 S6        30.30F
$$

COZ006>008-011-220000-
...WEST CENTRAL VALLEYS...

CITY           SKY/WX    TMP DP  RH WIND       PRES   REMARKS
GRAND JUNCTION CLOUDY    80  42  25 NE6       30.09F
MONTROSE       CLOUDY    78  43  28 NW12      30.16R
EAGLE          PTSUNNY   73  43  33 SW12      30.22F
RIFLE          CLOUDY    78  36  21 W14       30.13F
DELTA          CLOUDY    83  39  20 NW6       30.11S
NUCLA          CLOUDY    79  37  22 N8        30.19F
$$

COZ017>023-064>068-220000-
...SOUTHWEST COLORADO...

CITY           SKY/WX    TMP DP  RH WIND       PRES   REMARKS
DURANGO        CLOUDY    79  36  21 W13       30.18F
CORTEZ         SUNNY     79  34  19 W12       30.16F
PAGOSA SPRINGS CLOUDY    77  24  14 SW10G16   30.26F
TELLURIDE      CLOUDY    57  43  58 E13G18    30.40R
WOLF CREEK PAS NOT AVBL
$$

COZ009-010-012-014-032>034-037-058>063-220000-
...CENTRAL COLORADO...

CITY           SKY/WX    TMP DP  RH WIND       PRES   REMARKS
ASPEN          PTSUNNY   72  37  28 NW10G18   30.29S
BUENA VISTA    CLOUDY    74  32  21 W17       30.25S
COPPER MTN     CLOUDY    54  37  54 W16       30.59S
BERTHOUD PASS  DRIZZLE   41  41 100 NW13G30   30.63R
COTTONWOOD PAS CLOUDY    64  28  25 W9        30.41S
GUNNISON       CLOUDY    72  34  25 W5        30.28S
KREMMLING      PTSUNNY   72  32  23 SW8       30.27R
LEADVILLE      PTSUNNY   61  33  35 NW10G17   30.42R
MONARCH PASS   CLOUDY    54  28  37 W14G24    30.68
SALIDA         CLOUDY    77  29  17 SW9       30.29S
SUNLIGHT       PTSUNNY   57  41  54 CALM      30.53S
WILKERSON PASS PTSUNNY   59  30  33 S3        30.55
$$

COZ069>075-220000-
...SAN LUIS VALLEY/SANGRE DE CRISTO MOUNTAINS...

CITY           SKY/WX    TMP DP  RH WIND       PRES   REMARKS
ALAMOSA        MOSUNNY   77  33  20 VRB3      30.22F
LA VETA PASS   NOT AVBL
SAGUACHE       CLOUDY    73  36  25 NW10      30.27F
$$

COZ035-036-038>040-220000-
...NORTHERN COLORADO FRONT RANGE...

CITY           SKY/WX    TMP DP  RH WIND       PRES   REMARKS
DENVER INTL AP PTSUNNY   84  41  21 VRB6      30.08S
DMNS CITY PARK   N/A     83  45  26 E7        30.06S
AURORA         PTSUNNY   82  41  23 CALM      30.10F
FRONT RANGE AP PTSUNNY   84  39  20 CALM      30.09
ERIE MUNI ARPT PTSUNNY   83  38  20 CALM      30.06S
BOULDER MUN AP PTSUNNY   81  43  26 CALM      30.07S
CENTENNIAL     PTSUNNY   80  41  24 N9        30.11S
BROOMFIELD     PTSUNNY   82  41  23 S3        30.10F
FORT COLLINS   MOSUNNY   84  45  24 N12       30.05S
LONGMONT       MOSUNNY   89  45  21 S5        30.07S
$$

COZ041-046-047-076>085-087-088-220000-
...PIKES PEAK/PALMER DIVIDE AND SOUTHERN FOOTHILLS...

CITY           SKY/WX    TMP DP  RH WIND       PRES   REMARKS
COLO. SPRINGS  MOSUNNY   82  38  20 SE6       30.13F
A. F. ACADEMY  MOSUNNY   80  43  26 SE8       30.15S
ELLICOTT       MOSUNNY   84  39  20 CALM      30.12F
FALCON         MOSUNNY   76  41  28 CALM      30.20F
FORT CARSON    NOT AVBL
LIMON          MOSUNNY   84  46  26 E10       30.08F
MONUMENT HILL  MOSUNNY   77  41  27 SE10      30.19F
TRINIDAD       PTSUNNY   86  44  23 E6        30.08F
$$

COZ042>045-048>051-090-091-220000-
...NORTHEAST COLORADO...

CITY           SKY/WX    TMP DP  RH WIND       PRES   REMARKS
GREELEY ARPT   MOSUNNY   84  43  23 N5        30.05S
AKRON          MOSUNNY   85  43  22 SW5       30.04F
BURLINGTON     SUNNY     91  46  21 NE8       30.00F
WRAY             N/A     94  45  18 N5        29.97F
STERLING       MOSUNNY   90  54  29 NE7       29.99F
HOLYOKE        NOT AVBL
FORT MORGAN    MOSUNNY   87  43  21 S6        30.04S
$$

COZ086-089-092>099-220000-
...SOUTHEAST COLORADO...

CITY           SKY/WX    TMP DP  RH WIND       PRES   REMARKS
PUEBLO         SUNNY     91  39  16 E10       29.99F
LA JUNTA       NOT AVBL
LAMAR          NOT AVBL
SPRINGFIELD    NOT AVBL
$$



USA.gov is the U.S. government's official web portal to all federal, state and local government web resources and services.